Regional Weather Roundup
Issued by NWS

Home | Current Version | Previous Version | Text Only | Print | Product List | Glossary Off
Versions: 1 2 3 4 5 6 7 8 9 10 11 12 13 14 15 16 17 18 19 20 21 22 23 24 25 26 27 28 29 30 31 32 33 34 35 36 37 38 39 40 41 42 43 44 45 46 47 48 49 50

000
ASUS44 KMEG 151900
RWRTN
TENNESSEE HOURLY STATE WEATHER ROUNDUP
NATIONAL WEATHER SERVICE MEMPHIS TN
100 PM CST FRI DEC 15 2017

TNZ002-004-019-021-049-052-054-088>092-152000-
WEST TENNESSEE

CITY           SKY/WX    TMP DP  RH WIND       PRES   REMARKS
MEMPHIS INTL   SUNNY     45  25  45 SW8       30.19F
NWS MEMPHIS      N/A     45 N/A N/A MISG        N/A
JACKSON        SUNNY     44  25  47 W8        30.18F
DYERSBURG      SUNNY     46  27  47 W10       30.17F
$$

TNZ008-025-027-028-033-062-065-066-152000-
NORTH MIDDLE TENNESSEE

CITY           SKY/WX    TMP DP  RH WIND       PRES   REMARKS
NASHVILLE      MOSUNNY   40  21  46 NW9       30.15F WCI  34
CLARKSVILLE    SUNNY     40  19  43 SW7       30.11F
SMYRNA         MOSUNNY   38  22  52 NW6       30.16F WCI  33
CROSSVILLE     CLOUDY    30  19  63 W10       30.07S WCI  21
$$

TNZ061-075-076-078-094-096-097-152000-
SOUTH MIDDLE TENNESSEE

CITY           SKY/WX    TMP DP  RH WIND       PRES   REMARKS
WINCHESTER     CLOUDY    32  21  64 W7        30.14F WCI  26
$$

TNZ017-018-042-046-047-152000-
NORTHEAST TENNESSEE

CITY           SKY/WX    TMP DP  RH WIND       PRES   REMARKS
TRI CITIES     CLOUDY    34  24  67 W12       30.02S WCI  25
$$

TNZ012-013-036-069-073-074-152000-
CENTRAL EAST TENNESSEE

CITY           SKY/WX    TMP DP  RH WIND       PRES   REMARKS
KNOXVILLE      PTSUNNY   35  25  66 W10       30.09S WCI  27
OAK RIDGE      SUNNY     38  22  52 S9        30.10S WCI  31
$$

TNZ083-085-099-152000-
SOUTHEAST TENNESSEE

CITY           SKY/WX    TMP DP  RH WIND       PRES   REMARKS
CHATTANOOGA    CLOUDY    37  21  52 NW7       30.14F WCI  32
$$

SKY/WX REPORTED AS FAIR MEANS FEW OR NO CLOUDS BELOW
12 THOUSAND FEET.




USA.gov is the U.S. government's official web portal to all federal, state and local government web resources and services.